Export;EXP-2024-001 (2024-04-15T12:34:46+01:00);;;StationsCode;NL10133;NL10318;NL10444;NL10644;NL10722;NL10934
Periode;2024-03-01T00:00:00+01:00 - 2024-04-01T00:00:00+01:00;;;BeheerderMeetStation;RIVM;RIVM;RIVM;RIVM;RIVM;RIVM
Bron;https://data.rivm.nl/data/luchtmeetnet;;;StationsNaam;Wijnandsrade-Opfergeltstraat;Philippine-Stelleweg;De Zilk-Vogelaarsdreef;Cabauw-Wielsekade;Eibergen-Lintveldseweg;Kollumerwaard-Hooge Zuidwal
Beschrijving data;https://data.rivm.nl/data/luchtmeetnet/readme.pdf;;;Latitude,Longitude;(50.902281,5.881748);(51.294498,3.749484);(52.296556,4.510817);(51.974489,4.923301);(52.091801,6.605367);(53.330425,6.276815)
Accreditatienummer;https://www.rva.nl/alle-geaccrediteerden/;;;StationsGebied;regionaal;regionaal;regionaal;regionaal;regionaal;regionaal
;;;;StationsType;achtergrond;achtergrond;achtergrond;achtergrond;achtergrond;achtergrond
;;;;Meetprincipe;Ultraviolet fluorescentie (UV-F);Ultraviolet fluorescentie (UV-F);Ultraviolet fluorescentie (UV-F);Ultraviolet fluorescentie (UV-F);Ultraviolet fluorescentie (UV-F);Ultraviolet fluorescentie (UV-F)
;;;;Meetopstelling;Thermo model 43i SO2 analyser;Thermo model 43i SO2 analyser;Thermo model 43i SO2 analyser;Thermo model 43i SO2 analyser;Thermo model 43i SO2 analyser;Thermo model 43i SO2 analyser
;;;;Accreditatienummer;L224;L224;L224;L224;L224;L224
Component;Bep.periode;Eenheid; Begindatumtijd;Einddatumtijd;NL10133;NL10318;NL10444;NL10644;NL10722;NL10934
SO2;uur;�g/m�;2024-03-01T00:00:00+01:00;2024-03-01T01:00:00+01:00;0.12;;0.03;0.1;5.11;0.44
SO2;uur;�g/m�;2024-03-01T01:00:00+01:00;2024-03-01T02:00:00+01:00;0.06;;0;0.06;7.03;0.29
SO2;uur;�g/m�;2024-03-01T02:00:00+01:00;2024-03-01T03:00:00+01:00;0;;0;0.04;7.58;0.27
SO2;uur;�g/m�;2024-03-01T03:00:00+01:00;2024-03-01T04:00:00+01:00;0.02;;0.01;0.04;4.9;0.27
SO2;uur;�g/m�;2024-03-01T04:00:00+01:00;2024-03-01T05:00:00+01:00;0.19;;0.13;0.05;5.89;0.34
SO2;uur;�g/m�;2024-03-01T05:00:00+01:00;2024-03-01T06:00:00+01:00;0.18;;0.11;0.02;6.27;0.66
SO2;uur;�g/m�;2024-03-01T06:00:00+01:00;2024-03-01T07:00:00+01:00;0.15;;0.12;0.08;4.82;0.81
SO2;uur;�g/m�;2024-03-01T07:00:00+01:00;2024-03-01T08:00:00+01:00;0.14;;0.15;0.02;1.11;0.65
SO2;uur;�g/m�;2024-03-01T08:00:00+01:00;2024-03-01T09:00:00+01:00;0.36;;0.27;0.1;0.49;0.17
SO2;uur;�g/m�;2024-03-01T09:00:00+01:00;2024-03-01T10:00:00+01:00;0.24;;0.63;0.51;0.3;0.16
SO2;uur;�g/m�;2024-03-01T10:00:00+01:00;2024-03-01T11:00:00+01:00;0.2;;0.42;0.28;0.29;0.16
SO2;uur;�g/m�;2024-03-01T11:00:00+01:00;2024-03-01T12:00:00+01:00;0.17;;0.34;0.08;0.27;0.14
SO2;uur;�g/m�;2024-03-01T12:00:00+01:00;2024-03-01T13:00:00+01:00;0.13;;0.3;0.09;0.2;0.18
SO2;uur;�g/m�;2024-03-01T13:00:00+01:00;2024-03-01T14:00:00+01:00;0.15;;0.2;0.27;0.15;0.18
SO2;uur;�g/m�;2024-03-01T14:00:00+01:00;2024-03-01T15:00:00+01:00;0.13;;0.19;0.26;;0.18
SO2;uur;�g/m�;2024-03-01T15:00:00+01:00;2024-03-01T16:00:00+01:00;0.16;;0.24;0.13;;0.17
SO2;uur;�g/m�;2024-03-01T16:00:00+01:00;2024-03-01T17:00:00+01:00;0.15;;0.26;0.14;;0.15
SO2;uur;�g/m�;2024-03-01T17:00:00+01:00;2024-03-01T18:00:00+01:00;0.16;;0.3;0.1;;0.17
SO2;uur;�g/m�;2024-03-01T18:00:00+01:00;2024-03-01T19:00:00+01:00;0.21;;0.26;0.05;;0.23
SO2;uur;�g/m�;2024-03-01T19:00:00+01:00;2024-03-01T20:00:00+01:00;0.19;;0.2;0.11;1.34;0.19
SO2;uur;�g/m�;2024-03-01T20:00:00+01:00;2024-03-01T21:00:00+01:00;0.19;;0.15;0.2;0.89;0.36
SO2;uur;�g/m�;2024-03-01T21:00:00+01:00;2024-03-01T22:00:00+01:00;0.21;;0.14;0.32;0.95;0.5
SO2;uur;�g/m�;2024-03-01T22:00:00+01:00;2024-03-01T23:00:00+01:00;0.18;;0.22;0.32;0.92;0.46
SO2;uur;�g/m�;2024-03-01T23:00:00+01:00;2024-03-02T00:00:00+01:00;0.16;;0.26;0.58;0.72;0.35
SO2;uur;�g/m�;2024-03-02T00:00:00+01:00;2024-03-02T01:00:00+01:00;0.19;;0.31;0.25;0.87;0.32
SO2;uur;�g/m�;2024-03-02T01:00:00+01:00;2024-03-02T02:00:00+01:00;0.22;;0.19;0.08;1;0.35
SO2;uur;�g/m�;2024-03-02T02:00:00+01:00;2024-03-02T03:00:00+01:00;0.16;;0.26;0.1;0.84;0.34
SO2;uur;�g/m�;2024-03-02T03:00:00+01:00;2024-03-02T04:00:00+01:00;0.13;;0.21;0.06;2.7;0.28
SO2;uur;�g/m�;2024-03-02T04:00:00+01:00;2024-03-02T05:00:00+01:00;0.2;;0.39;-0.01;1.22;0.31
SO2;uur;�g/m�;2024-03-02T05:00:00+01:00;2024-03-02T06:00:00+01:00;0.2;;0.36;-0.04;0.32;0.31
SO2;uur;�g/m�;2024-03-02T06:00:00+01:00;2024-03-02T07:00:00+01:00;0.16;;0.34;-0.07;0.17;0.29
SO2;uur;�g/m�;2024-03-02T07:00:00+01:00;2024-03-02T08:00:00+01:00;0.16;;0.3;-0.03;0.08;0.1
SO2;uur;�g/m�;2024-03-02T08:00:00+01:00;2024-03-02T09:00:00+01:00;0.21;;0.29;0.05;0.38;0.07
SO2;uur;�g/m�;2024-03-02T09:00:00+01:00;2024-03-02T10:00:00+01:00;0.18;;0.36;0.17;3.82;0.07
SO2;uur;�g/m�;2024-03-02T10:00:00+01:00;2024-03-02T11:00:00+01:00;0.18;;0.45;0.24;1.84;0.07
SO2;uur;�g/m�;2024-03-02T11:00:00+01:00;2024-03-02T12:00:00+01:00;0.18;;0.41;0.28;0.48;0.09
SO2;uur;�g/m�;2024-03-02T12:00:00+01:00;2024-03-02T13:00:00+01:00;0.18;;0.45;0.21;0.88;0.08
SO2;uur;�g/m�;2024-03-02T13:00:00+01:00;2024-03-02T14:00:00+01:00;0.15;;0.39;0.2;4.37;0.06
SO2;uur;�g/m�;2024-03-02T14:00:00+01:00;2024-03-02T15:00:00+01:00;0.19;;0.39;0.03;2.77;0.16
SO2;uur;�g/m�;2024-03-02T15:00:00+01:00;2024-03-02T16:00:00+01:00;0.2;;0.41;0.1;1.07;0.41
SO2;uur;�g/m�;2024-03-02T16:00:00+01:00;2024-03-02T17:00:00+01:00;0.24;;0.34;0.13;0.74;0.75
SO2;uur;�g/m�;2024-03-02T17:00:00+01:00;2024-03-02T18:00:00+01:00;0.43;;0.31;0.87;0.47;0.42
SO2;uur;�g/m�;2024-03-02T18:00:00+01:00;2024-03-02T19:00:00+01:00;0.41;;0.36;0.15;0.35;0.25
SO2;uur;�g/m�;2024-03-02T19:00:00+01:00;2024-03-02T20:00:00+01:00;0.33;;0.38;0.58;0.35;0.18
SO2;uur;�g/m�;2024-03-02T20:00:00+01:00;2024-03-02T21:00:00+01:00;0.28;;0.35;0.17;0.64;0.21
SO2;uur;�g/m�;2024-03-02T21:00:00+01:00;2024-03-02T22:00:00+01:00;0.19;;0.43;0.75;0.47;0.15
SO2;uur;�g/m�;2024-03-02T22:00:00+01:00;2024-03-02T23:00:00+01:00;0.23;;0.54;0.19;0.51;0.19
SO2;uur;�g/m�;2024-03-02T23:00:00+01:00;2024-03-03T00:00:00+01:00;0.25;;0.49;0.17;0.39;0.15
SO2;uur;�g/m�;2024-03-03T00:00:00+01:00;2024-03-03T01:00:00+01:00;0.31;;0.54;0.66;0.46;0.14
SO2;uur;�g/m�;2024-03-03T01:00:00+01:00;2024-03-03T02:00:00+01:00;0.39;;0.42;0.62;0.43;0.13
SO2;uur;�g/m�;2024-03-03T02:00:00+01:00;2024-03-03T03:00:00+01:00;0.26;;0.47;0.28;0.59;0.17
SO2;uur;�g/m�;2024-03-03T03:00:00+01:00;2024-03-03T04:00:00+01:00;0.21;;0.5;0.88;0.33;0.14
SO2;uur;�g/m�;2024-03-03T04:00:00+01:00;2024-03-03T05:00:00+01:00;0.02;;0.37;0.99;0.2;0.06
SO2;uur;�g/m�;2024-03-03T05:00:00+01:00;2024-03-03T06:00:00+01:00;0.09;;0.43;0.72;0.12;0.23
SO2;uur;�g/m�;2024-03-03T06:00:00+01:00;2024-03-03T07:00:00+01:00;0.05;;0.4;0.5;0.12;0.29
SO2;uur;�g/m�;2024-03-03T07:00:00+01:00;2024-03-03T08:00:00+01:00;0.06;;0.33;0.55;0.08;0.32
SO2;uur;�g/m�;2024-03-03T08:00:00+01:00;2024-03-03T09:00:00+01:00;0.24;;0.39;0.55;0.09;0.42
SO2;uur;�g/m�;2024-03-03T09:00:00+01:00;2024-03-03T10:00:00+01:00;0.4;;0.42;1.09;0.43;0.38
SO2;uur;�g/m�;2024-03-03T10:00:00+01:00;2024-03-03T11:00:00+01:00;1.58;;0.67;0.69;0.41;0.45
SO2;uur;�g/m�;2024-03-03T11:00:00+01:00;2024-03-03T12:00:00+01:00;0.91;;0.81;0.72;0.41;0.44
SO2;uur;�g/m�;2024-03-03T12:00:00+01:00;2024-03-03T13:00:00+01:00;0.48;;0.77;0.85;0.7;0.5
SO2;uur;�g/m�;2024-03-03T13:00:00+01:00;2024-03-03T14:00:00+01:00;0.52;;0.75;0.55;1.28;0.6
SO2;uur;�g/m�;2024-03-03T14:00:00+01:00;2024-03-03T15:00:00+01:00;1.29;;0.47;0.5;1.16;0.76
SO2;uur;�g/m�;2024-03-03T15:00:00+01:00;2024-03-03T16:00:00+01:00;0.9;;0.61;0.22;0.23;0.88
SO2;uur;�g/m�;2024-03-03T16:00:00+01:00;2024-03-03T17:00:00+01:00;0.45;;0.6;0.14;0.7;0.63
SO2;uur;�g/m�;2024-03-03T17:00:00+01:00;2024-03-03T18:00:00+01:00;0.27;;0.46;0.23;0.52;0.55
SO2;uur;�g/m�;2024-03-03T18:00:00+01:00;2024-03-03T19:00:00+01:00;0.47;;0.35;0.5;0.33;0.58
SO2;uur;�g/m�;2024-03-03T19:00:00+01:00;2024-03-03T20:00:00+01:00;0.4;;0.22;0.29;0.4;0.45
SO2;uur;�g/m�;2024-03-03T20:00:00+01:00;2024-03-03T21:00:00+01:00;0.41;;0.16;-0.07;0.38;0.53
SO2;uur;�g/m�;2024-03-03T21:00:00+01:00;2024-03-03T22:00:00+01:00;0.25;;0.15;-0.1;0.13;0.54
SO2;uur;�g/m�;2024-03-03T22:00:00+01:00;2024-03-03T23:00:00+01:00;0.26;;0.17;-0.12;-0.03;0.47
SO2;uur;�g/m�;2024-03-03T23:00:00+01:00;2024-03-04T00:00:00+01:00;0.17;;0.15;-0.12;-0.09;0.4
SO2;uur;�g/m�;2024-03-04T00:00:00+01:00;2024-03-04T01:00:00+01:00;0.14;;0.18;-0.13;-0.06;0.4
SO2;uur;�g/m�;2024-03-04T01:00:00+01:00;2024-03-04T02:00:00+01:00;0.06;;0.16;-0.17;-0.08;0.28
SO2;uur;�g/m�;2024-03-04T02:00:00+01:00;2024-03-04T03:00:00+01:00;0.07;;0.16;-0.17;-0.06;0.43
SO2;uur;�g/m�;2024-03-04T03:00:00+01:00;2024-03-04T04:00:00+01:00;0.04;;0.15;-0.16;-0.06;0.44
SO2;uur;�g/m�;2024-03-04T04:00:00+01:00;2024-03-04T05:00:00+01:00;-0.26;;0.27;0.25;0.05;0.46
SO2;uur;�g/m�;2024-03-04T05:00:00+01:00;2024-03-04T06:00:00+01:00;-0.11;;0.29;0.28;0.05;0.43
SO2;uur;�g/m�;2024-03-04T06:00:00+01:00;2024-03-04T07:00:00+01:00;;;;;;
SO2;uur;�g/m�;2024-03-04T07:00:00+01:00;2024-03-04T08:00:00+01:00;0.22;;0.4;0.42;0.65;0.44
SO2;uur;�g/m�;2024-03-04T08:00:00+01:00;2024-03-04T09:00:00+01:00;0.2;;0.34;0.37;0.3;0.42
SO2;uur;�g/m�;2024-03-04T09:00:00+01:00;2024-03-04T10:00:00+01:00;0.18;;0.36;0.52;0.21;0.32
SO2;uur;�g/m�;2024-03-04T10:00:00+01:00;2024-03-04T11:00:00+01:00;0.56;;0.44;0.41;0.13;0.39
SO2;uur;�g/m�;2024-03-04T11:00:00+01:00;2024-03-04T12:00:00+01:00;0.44;;0.4;0.36;0.13;0.38
SO2;uur;�g/m�;2024-03-04T12:00:00+01:00;2024-03-04T13:00:00+01:00;0.6;;0.44;0.57;0.08;0.4
SO2;uur;�g/m�;2024-03-04T13:00:00+01:00;2024-03-04T14:00:00+01:00;0.98;;0.56;0.47;0.06;0.37
SO2;uur;�g/m�;2024-03-04T14:00:00+01:00;2024-03-04T15:00:00+01:00;1.04;;0.57;0.95;0.06;0.41
SO2;uur;�g/m�;2024-03-04T15:00:00+01:00;2024-03-04T16:00:00+01:00;0.86;;0.52;1.35;0.07;0.24
SO2;uur;�g/m�;2024-03-04T16:00:00+01:00;2024-03-04T17:00:00+01:00;0.81;;0.41;0.77;0.08;0.15
SO2;uur;�g/m�;2024-03-04T17:00:00+01:00;2024-03-04T18:00:00+01:00;0.63;;0.42;0.55;0.06;0.12
SO2;uur;�g/m�;2024-03-04T18:00:00+01:00;2024-03-04T19:00:00+01:00;0.2;;0.33;0.49;0.04;0.18
SO2;uur;�g/m�;2024-03-04T19:00:00+01:00;2024-03-04T20:00:00+01:00;-0.09;;0.33;0.43;0.06;0.23
SO2;uur;�g/m�;2024-03-04T20:00:00+01:00;2024-03-04T21:00:00+01:00;-0.04;;0.9;0.59;0.07;0.27
SO2;uur;�g/m�;2024-03-04T21:00:00+01:00;2024-03-04T22:00:00+01:00;-0.13;;0.7;0.48;0.07;0.39
SO2;uur;�g/m�;2024-03-04T22:00:00+01:00;2024-03-04T23:00:00+01:00;-0.12;;0.79;0.37;0.04;0.44
SO2;uur;�g/m�;2024-03-04T23:00:00+01:00;2024-03-05T00:00:00+01:00;-0.19;;0.68;0.34;0.06;0.47
SO2;uur;�g/m�;2024-03-05T00:00:00+01:00;2024-03-05T01:00:00+01:00;-0.19;;0.51;0.37;0.02;0.41
SO2;uur;�g/m�;2024-03-05T01:00:00+01:00;2024-03-05T02:00:00+01:00;-0.19;;0.36;0.39;0.08;0.33
SO2;uur;�g/m�;2024-03-05T02:00:00+01:00;2024-03-05T03:00:00+01:00;-0.19;;0.4;0.37;0.01;0.24
SO2;uur;�g/m�;2024-03-05T03:00:00+01:00;2024-03-05T04:00:00+01:00;-0.2;;0.35;0.41;0.02;0.22
SO2;uur;�g/m�;2024-03-05T04:00:00+01:00;2024-03-05T05:00:00+01:00;0.29;;0.21;0.14;0.25;0.67
SO2;uur;�g/m�;2024-03-05T05:00:00+01:00;2024-03-05T06:00:00+01:00;0.29;;0.15;0.23;0.27;0.84
SO2;uur;�g/m�;2024-03-05T06:00:00+01:00;2024-03-05T07:00:00+01:00;0.26;;0.2;0.17;0.31;1.03
SO2;uur;�g/m�;2024-03-05T07:00:00+01:00;2024-03-05T08:00:00+01:00;0.27;;0.23;0.2;0.4;0.97
SO2;uur;�g/m�;2024-03-05T08:00:00+01:00;2024-03-05T09:00:00+01:00;0.29;;0.38;0.44;0.56;0.91
SO2;uur;�g/m�;2024-03-05T09:00:00+01:00;2024-03-05T10:00:00+01:00;0.34;;0.42;0.76;0.53;0.91
SO2;uur;�g/m�;2024-03-05T10:00:00+01:00;2024-03-05T11:00:00+01:00;0.33;;0.37;0.62;0.84;0.91
SO2;uur;�g/m�;2024-03-05T11:00:00+01:00;2024-03-05T12:00:00+01:00;0.35;;0.38;1.05;1.93;0.86
SO2;uur;�g/m�;2024-03-05T12:00:00+01:00;2024-03-05T13:00:00+01:00;0.29;;0.49;1.32;8.3;0.72
SO2;uur;�g/m�;2024-03-05T13:00:00+01:00;2024-03-05T14:00:00+01:00;0.31;;0.77;1.99;2.48;0.78
SO2;uur;�g/m�;2024-03-05T14:00:00+01:00;2024-03-05T15:00:00+01:00;0.26;;1.24;2.57;1.34;0.77
SO2;uur;�g/m�;2024-03-05T15:00:00+01:00;2024-03-05T16:00:00+01:00;0.24;;1.37;1.71;0.8;0.81
SO2;uur;�g/m�;2024-03-05T16:00:00+01:00;2024-03-05T17:00:00+01:00;0.53;;2.1;1.23;0.59;0.91
SO2;uur;�g/m�;2024-03-05T17:00:00+01:00;2024-03-05T18:00:00+01:00;0.59;;2;0.87;0.55;1.01
SO2;uur;�g/m�;2024-03-05T18:00:00+01:00;2024-03-05T19:00:00+01:00;0.3;;1.44;0.63;0.51;1.08
SO2;uur;�g/m�;2024-03-05T19:00:00+01:00;2024-03-05T20:00:00+01:00;0.3;;1.13;0.4;0.43;0.94
SO2;uur;�g/m�;2024-03-05T20:00:00+01:00;2024-03-05T21:00:00+01:00;0.26;;0.86;0.38;0.39;0.85
SO2;uur;�g/m�;2024-03-05T21:00:00+01:00;2024-03-05T22:00:00+01:00;0.26;;0.69;0.25;0.39;0.74
SO2;uur;�g/m�;2024-03-05T22:00:00+01:00;2024-03-05T23:00:00+01:00;0.23;;0.53;0.2;0.33;0.63
SO2;uur;�g/m�;2024-03-05T23:00:00+01:00;2024-03-06T00:00:00+01:00;0.25;;0.48;0.18;0.33;0.49
SO2;uur;�g/m�;2024-03-06T00:00:00+01:00;2024-03-06T01:00:00+01:00;0.2;;0.55;0.33;0.33;0.54
SO2;uur;�g/m�;2024-03-06T01:00:00+01:00;2024-03-06T02:00:00+01:00;0.25;;0.66;0.43;0.32;0.61
SO2;uur;�g/m�;2024-03-06T02:00:00+01:00;2024-03-06T03:00:00+01:00;0.24;;0.87;0.32;0.33;0.56
SO2;uur;�g/m�;2024-03-06T03:00:00+01:00;2024-03-06T04:00:00+01:00;0.24;;0.75;0.24;0.33;0.55
SO2;uur;�g/m�;2024-03-06T04:00:00+01:00;2024-03-06T05:00:00+01:00;0.2;;0.28;0.17;-0.03;0.3
SO2;uur;�g/m�;2024-03-06T05:00:00+01:00;2024-03-06T06:00:00+01:00;0.23;;0.22;0.16;0.02;0.28
SO2;uur;�g/m�;2024-03-06T06:00:00+01:00;2024-03-06T07:00:00+01:00;0.22;;0.19;0.18;-0.04;0.26
SO2;uur;�g/m�;2024-03-06T07:00:00+01:00;2024-03-06T08:00:00+01:00;0.24;;0.27;0.24;-0.01;0.29
SO2;uur;�g/m�;2024-03-06T08:00:00+01:00;2024-03-06T09:00:00+01:00;0.27;;0.26;0.38;0.03;0.34
SO2;uur;�g/m�;2024-03-06T09:00:00+01:00;2024-03-06T10:00:00+01:00;0.3;;0.29;1.01;0.04;0.41
SO2;uur;�g/m�;2024-03-06T10:00:00+01:00;2024-03-06T11:00:00+01:00;0.36;;0.54;1.27;0.08;0.43
SO2;uur;�g/m�;2024-03-06T11:00:00+01:00;2024-03-06T12:00:00+01:00;0.34;;1.12;0.88;0.25;0.46
SO2;uur;�g/m�;2024-03-06T12:00:00+01:00;2024-03-06T13:00:00+01:00;0.3;;0.83;0.64;0.19;0.49
SO2;uur;�g/m�;2024-03-06T13:00:00+01:00;2024-03-06T14:00:00+01:00;0.27;;0.76;0.82;0.15;0.5
SO2;uur;�g/m�;2024-03-06T14:00:00+01:00;2024-03-06T15:00:00+01:00;0.25;;1.06;0.61;0.11;0.49
SO2;uur;�g/m�;2024-03-06T15:00:00+01:00;2024-03-06T16:00:00+01:00;0.41;;1.5;0.62;0.09;0.49
SO2;uur;�g/m�;2024-03-06T16:00:00+01:00;2024-03-06T17:00:00+01:00;0.32;;1.61;0.47;0.1;0.45
SO2;uur;�g/m�;2024-03-06T17:00:00+01:00;2024-03-06T18:00:00+01:00;0.29;;1.3;0.35;0.08;0.45
SO2;uur;�g/m�;2024-03-06T18:00:00+01:00;2024-03-06T19:00:00+01:00;0.23;;0.9;0.37;0.05;0.62
SO2;uur;�g/m�;2024-03-06T19:00:00+01:00;2024-03-06T20:00:00+01:00;0.24;;0.44;0.6;-0.02;0.61
SO2;uur;�g/m�;2024-03-06T20:00:00+01:00;2024-03-06T21:00:00+01:00;0.25;;0.34;0.33;0.01;0.4
SO2;uur;�g/m�;2024-03-06T21:00:00+01:00;2024-03-06T22:00:00+01:00;0.28;;0.35;0.27;0.03;0.31
SO2;uur;�g/m�;2024-03-06T22:00:00+01:00;2024-03-06T23:00:00+01:00;0.26;;0.47;0.26;0.04;0.57
SO2;uur;�g/m�;2024-03-06T23:00:00+01:00;2024-03-07T00:00:00+01:00;0.35;;0.4;0.25;0.08;0.61
SO2;uur;�g/m�;2024-03-07T00:00:00+01:00;2024-03-07T01:00:00+01:00;0.31;;0.3;0.18;0.09;0.41
SO2;uur;�g/m�;2024-03-07T01:00:00+01:00;2024-03-07T02:00:00+01:00;0.34;;0.17;0.14;0.05;0.26
SO2;uur;�g/m�;2024-03-07T02:00:00+01:00;2024-03-07T03:00:00+01:00;0.32;;0.15;0.16;0.01;0.31
SO2;uur;�g/m�;2024-03-07T03:00:00+01:00;2024-03-07T04:00:00+01:00;0.26;;0.1;0.15;0.02;0.36
SO2;uur;�g/m�;2024-03-07T04:00:00+01:00;2024-03-07T05:00:00+01:00;0.04;;0.33;0.11;0.23;0.17
SO2;uur;�g/m�;2024-03-07T05:00:00+01:00;2024-03-07T06:00:00+01:00;0.04;;0.34;0.19;0.2;0.21
SO2;uur;�g/m�;2024-03-07T06:00:00+01:00;2024-03-07T07:00:00+01:00;0.09;;0.35;0.2;0.22;0.23
SO2;uur;�g/m�;2024-03-07T07:00:00+01:00;2024-03-07T08:00:00+01:00;0.32;;0.41;0.17;0.24;0.27
SO2;uur;�g/m�;2024-03-07T08:00:00+01:00;2024-03-07T09:00:00+01:00;0.51;;0.59;0.33;0.29;0.16
SO2;uur;�g/m�;2024-03-07T09:00:00+01:00;2024-03-07T10:00:00+01:00;0.84;;0.62;0.42;0.5;0.21
SO2;uur;�g/m�;2024-03-07T10:00:00+01:00;2024-03-07T11:00:00+01:00;0.98;;0.77;0.42;0.46;0.15
SO2;uur;�g/m�;2024-03-07T11:00:00+01:00;2024-03-07T12:00:00+01:00;0.9;;0.9;0.8;0.45;0.16
SO2;uur;�g/m�;2024-03-07T12:00:00+01:00;2024-03-07T13:00:00+01:00;0.46;;0.82;0.53;0.31;0.1
SO2;uur;�g/m�;2024-03-07T13:00:00+01:00;2024-03-07T14:00:00+01:00;1.3;;0.59;0.51;0.21;0.13
SO2;uur;�g/m�;2024-03-07T14:00:00+01:00;2024-03-07T15:00:00+01:00;0.41;;0.52;0.47;0.24;0.13
SO2;uur;�g/m�;2024-03-07T15:00:00+01:00;2024-03-07T16:00:00+01:00;0.84;;0.56;0.36;0.22;0.22
SO2;uur;�g/m�;2024-03-07T16:00:00+01:00;2024-03-07T17:00:00+01:00;0.49;;0.49;0.12;0.2;0.18
SO2;uur;�g/m�;2024-03-07T17:00:00+01:00;2024-03-07T18:00:00+01:00;0.81;;0.39;0.2;0.17;0.14
SO2;uur;�g/m�;2024-03-07T18:00:00+01:00;2024-03-07T19:00:00+01:00;0.48;;0.3;0.29;0.2;0.16
SO2;uur;�g/m�;2024-03-07T19:00:00+01:00;2024-03-07T20:00:00+01:00;0.31;;0.27;0.13;0.19;0.18
SO2;uur;�g/m�;2024-03-07T20:00:00+01:00;2024-03-07T21:00:00+01:00;0.69;;0.36;0.09;0.18;0.24
SO2;uur;�g/m�;2024-03-07T21:00:00+01:00;2024-03-07T22:00:00+01:00;0.48;;0.4;0.1;0.17;0.23
SO2;uur;�g/m�;2024-03-07T22:00:00+01:00;2024-03-07T23:00:00+01:00;0.27;;0.37;0.07;0.21;0.2
SO2;uur;�g/m�;2024-03-07T23:00:00+01:00;2024-03-08T00:00:00+01:00;0.29;;0.33;0.05;0.26;0.22
SO2;uur;�g/m�;2024-03-08T00:00:00+01:00;2024-03-08T01:00:00+01:00;0.3;;0.27;0.05;0.22;0.25
SO2;uur;�g/m�;2024-03-08T01:00:00+01:00;2024-03-08T02:00:00+01:00;0.3;;0.21;0.04;0.21;0.3
SO2;uur;�g/m�;2024-03-08T02:00:00+01:00;2024-03-08T03:00:00+01:00;0.78;;0.18;0.05;0.23;0.35
SO2;uur;�g/m�;2024-03-08T03:00:00+01:00;2024-03-08T04:00:00+01:00;0.45;;0.17;0.01;0.25;0.34
SO2;uur;�g/m�;2024-03-08T04:00:00+01:00;2024-03-08T05:00:00+01:00;0.17;;0.3;0.1;0.35;0.41
SO2;uur;�g/m�;2024-03-08T05:00:00+01:00;2024-03-08T06:00:00+01:00;0.35;;0.3;0.17;0.36;0.44
SO2;uur;�g/m�;2024-03-08T06:00:00+01:00;2024-03-08T07:00:00+01:00;0.58;;0.34;0.25;0.41;0.43
SO2;uur;�g/m�;2024-03-08T07:00:00+01:00;2024-03-08T08:00:00+01:00;1.26;;0.33;0.38;0.48;0.42
SO2;uur;�g/m�;2024-03-08T08:00:00+01:00;2024-03-08T09:00:00+01:00;1.58;;0.41;0.41;0.69;0.53
SO2;uur;�g/m�;2024-03-08T09:00:00+01:00;2024-03-08T10:00:00+01:00;1.99;;0.79;0.71;0.76;0.65
SO2;uur;�g/m�;2024-03-08T10:00:00+01:00;2024-03-08T11:00:00+01:00;1.25;;1.13;1.21;0.73;0.78
SO2;uur;�g/m�;2024-03-08T11:00:00+01:00;2024-03-08T12:00:00+01:00;0.94;;1.24;1.34;0.73;0.78
SO2;uur;�g/m�;2024-03-08T12:00:00+01:00;2024-03-08T13:00:00+01:00;0.71;;1.45;1.43;0.72;0.78
SO2;uur;�g/m�;2024-03-08T13:00:00+01:00;2024-03-08T14:00:00+01:00;0.83;;1.02;1.3;0.63;0.86
SO2;uur;�g/m�;2024-03-08T14:00:00+01:00;2024-03-08T15:00:00+01:00;0.74;;0.68;1.11;0.54;0.78
SO2;uur;�g/m�;2024-03-08T15:00:00+01:00;2024-03-08T16:00:00+01:00;0.65;;0.65;1.21;0.54;0.63
SO2;uur;�g/m�;2024-03-08T16:00:00+01:00;2024-03-08T17:00:00+01:00;0.66;1.57;0.73;0.92;0.67;0.58
SO2;uur;�g/m�;2024-03-08T17:00:00+01:00;2024-03-08T18:00:00+01:00;0.78;3.01;0.69;0.79;0.62;0.65
SO2;uur;�g/m�;2024-03-08T18:00:00+01:00;2024-03-08T19:00:00+01:00;1.19;2.07;0.49;0.57;0.54;0.51
SO2;uur;�g/m�;2024-03-08T19:00:00+01:00;2024-03-08T20:00:00+01:00;0.71;1.43;0.47;0.81;0.46;0.55
SO2;uur;�g/m�;2024-03-08T20:00:00+01:00;2024-03-08T21:00:00+01:00;0.39;1.9;0.55;0.56;0.49;0.64
SO2;uur;�g/m�;2024-03-08T21:00:00+01:00;2024-03-08T22:00:00+01:00;0.42;1.8;0.47;0.54;0.65;0.57
SO2;uur;�g/m�;2024-03-08T22:00:00+01:00;2024-03-08T23:00:00+01:00;0.41;1.7;0.45;0.51;0.73;0.48
SO2;uur;�g/m�;2024-03-08T23:00:00+01:00;2024-03-09T00:00:00+01:00;1.15;2.38;0.43;0.39;0.71;0.52
SO2;uur;�g/m�;2024-03-09T00:00:00+01:00;2024-03-09T01:00:00+01:00;0.53;1.08;0.44;0.42;0.66;0.46
SO2;uur;�g/m�;2024-03-09T01:00:00+01:00;2024-03-09T02:00:00+01:00;0.22;0.85;0.36;0.58;0.6;0.45
SO2;uur;�g/m�;2024-03-09T02:00:00+01:00;2024-03-09T03:00:00+01:00;0.12;0.77;0.38;0.68;0.55;0.45
SO2;uur;�g/m�;2024-03-09T03:00:00+01:00;2024-03-09T04:00:00+01:00;0.1;0.81;0.44;0.87;0.48;0.44
SO2;uur;�g/m�;2024-03-09T04:00:00+01:00;2024-03-09T05:00:00+01:00;;0.75;0.3;1.19;0.07;0.61
SO2;uur;�g/m�;2024-03-09T05:00:00+01:00;2024-03-09T06:00:00+01:00;0.67;0.69;0.36;1.29;0.08;0.61
SO2;uur;�g/m�;2024-03-09T06:00:00+01:00;2024-03-09T07:00:00+01:00;0.5;0.61;0.41;1.39;0.05;0.6
SO2;uur;�g/m�;2024-03-09T07:00:00+01:00;2024-03-09T08:00:00+01:00;0.51;0.64;0.5;1.39;0.06;0.66
SO2;uur;�g/m�;2024-03-09T08:00:00+01:00;2024-03-09T09:00:00+01:00;0.8;0.85;0.67;1.4;0.14;0.79
SO2;uur;�g/m�;2024-03-09T09:00:00+01:00;2024-03-09T10:00:00+01:00;1.85;0.95;0.83;1.81;0.32;0.93
SO2;uur;�g/m�;2024-03-09T10:00:00+01:00;2024-03-09T11:00:00+01:00;2.34;1.02;1.35;2.11;0.49;0.96
SO2;uur;�g/m�;2024-03-09T11:00:00+01:00;2024-03-09T12:00:00+01:00;1.35;0.79;1.74;2.16;0.94;1.03
SO2;uur;�g/m�;2024-03-09T12:00:00+01:00;2024-03-09T13:00:00+01:00;1.51;0.68;1.78;1.75;0.96;1.05
SO2;uur;�g/m�;2024-03-09T13:00:00+01:00;2024-03-09T14:00:00+01:00;1.42;0.49;1.65;1.79;0.76;1.04
SO2;uur;�g/m�;2024-03-09T14:00:00+01:00;2024-03-09T15:00:00+01:00;1.26;0.57;1.42;1.46;0.55;0.97
SO2;uur;�g/m�;2024-03-09T15:00:00+01:00;2024-03-09T16:00:00+01:00;1.25;0.5;1.32;3.53;0.45;0.97
SO2;uur;�g/m�;2024-03-09T16:00:00+01:00;2024-03-09T17:00:00+01:00;0.82;0.5;2.08;7.43;0.39;0.88
SO2;uur;�g/m�;2024-03-09T17:00:00+01:00;2024-03-09T18:00:00+01:00;0.72;0.42;1.25;3.7;0.32;0.7
SO2;uur;�g/m�;2024-03-09T18:00:00+01:00;2024-03-09T19:00:00+01:00;0.59;0.49;0.88;1.27;0.27;0.59
SO2;uur;�g/m�;2024-03-09T19:00:00+01:00;2024-03-09T20:00:00+01:00;0.46;0.48;0.61;0.9;0.22;0.51
SO2;uur;�g/m�;2024-03-09T20:00:00+01:00;2024-03-09T21:00:00+01:00;0.38;0.38;0.46;1.13;0.16;0.45
SO2;uur;�g/m�;2024-03-09T21:00:00+01:00;2024-03-09T22:00:00+01:00;0.59;0.3;0.4;0.76;0.2;0.46
SO2;uur;�g/m�;2024-03-09T22:00:00+01:00;2024-03-09T23:00:00+01:00;0.74;0.35;0.36;0.71;0.19;0.54
SO2;uur;�g/m�;2024-03-09T23:00:00+01:00;2024-03-10T00:00:00+01:00;0.63;0.31;0.36;0.74;0.14;0.77
SO2;uur;�g/m�;2024-03-10T00:00:00+01:00;2024-03-10T01:00:00+01:00;0.67;0.36;0.49;0.87;0.14;0.75
SO2;uur;�g/m�;2024-03-10T01:00:00+01:00;2024-03-10T02:00:00+01:00;0.68;0.63;0.43;0.79;0.15;0.65
SO2;uur;�g/m�;2024-03-10T02:00:00+01:00;2024-03-10T03:00:00+01:00;0.85;0.54;0.39;0.49;0.28;0.57
SO2;uur;�g/m�;2024-03-10T03:00:00+01:00;2024-03-10T04:00:00+01:00;0.72;0.88;0.39;0.42;0.38;0.64
SO2;uur;�g/m�;2024-03-10T04:00:00+01:00;2024-03-10T05:00:00+01:00;0.57;0.89;0.34;0.45;0.48;0.73
SO2;uur;�g/m�;2024-03-10T05:00:00+01:00;2024-03-10T06:00:00+01:00;0.61;0.87;0.34;0.35;0.48;0.66
SO2;uur;�g/m�;2024-03-10T06:00:00+01:00;2024-03-10T07:00:00+01:00;0.73;0.98;0.35;0.38;0.48;0.76
SO2;uur;�g/m�;2024-03-10T07:00:00+01:00;2024-03-10T08:00:00+01:00;0.73;1.28;0.34;0.37;0.4;0.85
SO2;uur;�g/m�;2024-03-10T08:00:00+01:00;2024-03-10T09:00:00+01:00;0.73;1.46;0.48;0.42;0.51;0.9
SO2;uur;�g/m�;2024-03-10T09:00:00+01:00;2024-03-10T10:00:00+01:00;0.8;1.65;0.55;0.59;0.69;1.22
SO2;uur;�g/m�;2024-03-10T10:00:00+01:00;2024-03-10T11:00:00+01:00;1.23;2.15;0.61;0.96;0.87;1.44
SO2;uur;�g/m�;2024-03-10T11:00:00+01:00;2024-03-10T12:00:00+01:00;1.78;2.25;0.69;0.74;0.85;1.4
SO2;uur;�g/m�;2024-03-10T12:00:00+01:00;2024-03-10T13:00:00+01:00;1.07;2.33;0.82;0.78;0.98;1.51
SO2;uur;�g/m�;2024-03-10T13:00:00+01:00;2024-03-10T14:00:00+01:00;0.79;2.52;0.89;0.94;1.19;1.47
SO2;uur;�g/m�;2024-03-10T14:00:00+01:00;2024-03-10T15:00:00+01:00;0.8;1.71;1.08;0.87;1.27;1.91
SO2;uur;�g/m�;2024-03-10T15:00:00+01:00;2024-03-10T16:00:00+01:00;0.84;2.29;1.15;0.85;1.01;1.88
SO2;uur;�g/m�;2024-03-10T16:00:00+01:00;2024-03-10T17:00:00+01:00;0.81;3.71;1.14;0.99;0.86;1.53
SO2;uur;�g/m�;2024-03-10T17:00:00+01:00;2024-03-10T18:00:00+01:00;0.8;2.78;0.99;1.03;0.67;1.32
SO2;uur;�g/m�;2024-03-10T18:00:00+01:00;2024-03-10T19:00:00+01:00;0.72;2.01;0.82;0.94;0.62;1.47
SO2;uur;�g/m�;2024-03-10T19:00:00+01:00;2024-03-10T20:00:00+01:00;0.58;1.3;0.77;0.73;0.66;1.25
SO2;uur;�g/m�;2024-03-10T20:00:00+01:00;2024-03-10T21:00:00+01:00;0.69;0.91;0.77;0.64;0.68;1.11
SO2;uur;�g/m�;2024-03-10T21:00:00+01:00;2024-03-10T22:00:00+01:00;0.62;0.73;0.82;0.66;0.63;0.97
SO2;uur;�g/m�;2024-03-10T22:00:00+01:00;2024-03-10T23:00:00+01:00;0.76;0.65;0.76;0.56;0.64;0.94
SO2;uur;�g/m�;2024-03-10T23:00:00+01:00;2024-03-11T00:00:00+01:00;0.76;0.59;0.66;0.45;0.6;0.91
SO2;uur;�g/m�;2024-03-11T00:00:00+01:00;2024-03-11T01:00:00+01:00;0.53;0.49;0.62;0.39;0.55;0.87